Shirley, NY

10:00 PM EDT on June 26, 2017 (GMT -0400)
Brookhaven

Weather History for KHWV - June, 2014

Change the Weather History Date:

Saturday, June 7, 2014

  Actual Average (KISP) Record (KISP)
Temperature  
Mean Temperature 67 °F -  
Max Temperature 79 °F 71 °F 94 °F (1999)
Min Temperature 57 °F 54 °F 47 °F (2007)
Cooling Degree Days 2    
Growing Degree Days 17 (Base 50)    
Moisture  
Dew Point 54 °F    
Average Humidity 62    
Maximum Humidity 87    
Minimum Humidity 43    
Precipitation  
Precipitation 0.00 in - - ()
Sea Level Pressure  
Sea Level Pressure 29.96 in    
Wind  
Wind Speed 6 mph (West)    
Max Wind Speed 10 mph    
Max Gust Speed -    
Visibility 10 miles    
Events      
Averages and records for this station are not official NWS values.
T = Trace of Precipitation, MM = Missing Value Source: NWS Daily Summary

Daily Weather History Graph

Daily Weather History Graph

Search for Another Location

Airport or City:

Trip Planner

Search our weather history database for the weather conditions in past years. The results will help you decide how hot, cold, wet, or windy it might be!

Date:

Astronomy

Jun. 07, 2014 Rise Set
Actual Time 5:20 AM EDT 8:20 PM EDT
Civil Twilight 4:47 AM EDT 8:53 PM EDT
Nautical Twilight 4:05 AM EDT 9:36 PM EDT
Astronomical Twilight 3:15 AM EDT 10:25 PM EDT
Moon 2:33 PM EDT (6/7) 1:42 AM EDT (6/7)
Length of Visible Light 16h 06m
Length of Day
15h 00m
Waxing Gibbous, 67% of the Moon is Illuminated
Jun 7
Waxing Gibbous
Jun 13
Full
Jun 19
Last Quarter
Jun 27
New
Jul 5
First Quarter

Hourly Weather History & Observations

Time (EDT) Temp. Dew Point Humidity Pressure Visibility Wind Dir Wind Speed Gust Speed Precip Events Conditions
12:56 AM 62.1 °F 52.0 °F 70% 29.94 in 10.0 mi NNW 5.8 mph - N/A   Clear
2:56 AM 57.9 °F 51.1 °F 78% 29.94 in 10.0 mi NW 4.6 mph - N/A   Clear
3:56 AM 57.9 °F 52.0 °F 81% 29.94 in 10.0 mi NNW 5.8 mph - N/A   Clear
4:56 AM 57.0 °F 52.0 °F 83% 29.95 in 10.0 mi NW 5.8 mph - N/A   Clear
5:56 AM 57.0 °F 53.1 °F 87% 29.96 in 10.0 mi NW 5.8 mph - N/A   Clear
6:56 AM 62.1 °F 54.0 °F 75% 29.96 in 10.0 mi NNW 6.9 mph - N/A   Clear
7:56 AM 64.9 °F 54.0 °F 68% 29.99 in 10.0 mi NNW 9.2 mph - N/A   Clear
8:56 AM 70.0 °F 55.0 °F 59% 29.99 in 10.0 mi North 8.1 mph - N/A   Clear
9:56 AM 73.0 °F 54.0 °F 51% 29.99 in 10.0 mi NNW 6.9 mph - N/A   Clear
10:56 AM 75.0 °F 54.0 °F 48% 30.00 in 10.0 mi North 8.1 mph - N/A   Clear
11:56 AM 77.0 °F 54.0 °F 45% 29.98 in 10.0 mi Variable 5.8 mph - N/A   Clear
12:56 PM 75.9 °F 52.0 °F 43% 29.98 in 10.0 mi Calm Calm - N/A   Scattered Clouds
2:56 PM 77.0 °F 55.0 °F 47% 29.96 in 10.0 mi South 10.4 mph - N/A   Scattered Clouds
3:56 PM 75.9 °F 55.0 °F 48% 29.95 in 10.0 mi South 10.4 mph - N/A   Partly Cloudy
4:56 PM 77.0 °F 55.0 °F 47% 29.94 in 10.0 mi SSW 10.4 mph - N/A   Clear
5:56 PM 77.0 °F 54.0 °F 45% 29.93 in 10.0 mi SSW 9.2 mph - N/A   Clear
6:56 PM 75.0 °F 55.9 °F 51% 29.93 in 10.0 mi SW 6.9 mph - N/A   Clear
7:56 PM 71.1 °F 57.0 °F 61% 29.93 in 10.0 mi North - - N/A   Clear
8:56 PM 68.0 °F 55.9 °F 65% 29.93 in 10.0 mi SSW 4.6 mph - N/A   Clear
9:56 PM 66.9 °F 57.0 °F 70% 29.96 in 10.0 mi SW 6.9 mph - N/A   Clear
10:56 PM 64.9 °F 57.0 °F 75% 29.97 in 10.0 mi WSW 4.6 mph - N/A   Clear
11:56 PM 64.9 °F 57.0 °F 75% 29.98 in 10.0 mi WSW 4.6 mph - N/A   Clear